Tracking 27086 objects as of 22-Mar-2023
HD Live streaming from Space Station
objects crossing your sky now

STARLINK-1672

Track STARLINK-1672 now!
10-day predictions
STARLINK-1672 is classified as:


NORAD ID: 46537
Int'l Code: 2020-070F
Perigee: 553.8 km
Apogee: 555.0 km
Inclination: 53.1 °
Period: 95.6 minutes
Semi major axis: 6925 km
RCS: Unknown
Launch date: October 6, 2020
Source: United States (US)
Launch site: AIR FORCE EASTERN TEST RANGE (AFETR)
Your satellite tracking list
Your tracking list is empty




NASA's NSSDC Master Catalog

Two Line Element Set (TLE):
1 46537U 20070F   23081.24615212  .00027560  00000-0  18625-2 0  9995
2 46537  53.0543   0.3843 0000852  60.2554 299.8519 15.06387511135911
Source of the keplerian elements: AFSPC